Location: Michelbach Markt
(48.1000°N, 15.7500°E)
Time: 10:01:27
(UTC+02:00)

X-37B - Pass Details

Date: 29 January 2022
Orbit: 328 x 343 km, 45.0° (Epoch: 15 May)

Event Time Altitude Azimuth Distance (km) Brightness Sun altitude
Rises 17:41:43 0° 218° (SW) 2,109 5.3 -8.6°
Reaches altitude 10° 17:44:10 10° 196° (SSW) 1,271 3.7 -9.0°
Maximum altitude 17:46:03 16° 154° (SSE) 976 2.5 -9.3°
Drops below altitude 10° 17:47:57 10° 113° (ESE) 1,269 2.7 -9.6°
Enters shadow 17:48:00 10° 112° (ESE) 1,285 2.7 -9.6°
